Location: Artiguedieu
(43.5000°N, 0.5454°E)
Time: 06:25:08
(UTC+00:00)

EO 1 Delta rocket - Pass Details

Date: 06 December 2020
Orbit: 698 x 1791 km, 95.4° (Epoch: 19 January)

Event Time Altitude Azimuth Distance (km) Brightness Sun altitude
Rises 05:09:16 0° 162° (SSE) 3,207 7.6 -22.3°
Reaches altitude 10° 05:11:37 10° 160° (SSE) 2,220 6.8 -21.9°
Maximum altitude 05:16:18 69° 78° (ENE) 751 4.1 -21.0°
Drops below altitude 10° 05:20:56 10° 355° (N) 2,202 6.2 -20.2°
Sets 05:23:16 0° 354° (N) 3,179 7.0 -19.8°
Enters shadow 05:23:17 - 354° (N) 3,189 7.0 -19.8°
